Hourly Weather Alikanas

Today, 9 March, Tuesday

Time Temperature Precipitation Wind Pressure Humidity
00:00 +13°C° 0 mm 3 mps 760 mmHg 74%
01:00 +13°C° 0 mm 4 mps 760 mmHg 73%
02:00 +13°C° 0 mm 4 mps 759 mmHg 75%
03:00 +13°C° 0 mm 4 mps 759 mmHg 78%
04:00 +13°C° 0 mm 5 mps 759 mmHg 80%
05:00 +13°C° 0 mm 5 mps 759 mmHg 79%
06:00 +13°C° 0 mm 5 mps 759 mmHg 78%
07:00 +13°C° 0 mm 5 mps 759 mmHg 78%
08:00 +14°C° 0 mm 4 mps 759 mmHg 74%
09:00 +14°C° 0 mm 4 mps 759 mmHg 71%
10:00 +15°C° 0 mm 4 mps 759 mmHg 67%
11:00 +17°C° 0 mm 3 mps 759 mmHg 65%
12:00 +17°C° 0 mm 2 mps 759 mmHg 63%
13:00 +19°C° 0 mm 1 mps 759 mmHg 61%
14:00 +18°C° 0 mm 2 mps 759 mmHg 62%
15:00 +17°C° 0 mm 2 mps 758 mmHg 63%
16:00 +17°C° 0 mm 3 mps 758 mmHg 64%
17:00 +16°C° 0 mm 3 mps 759 mmHg 67%
18:00 +16°C° 0 mm 3 mps 759 mmHg 71%
19:00 +14°C° 0 mm 4 mps 759 mmHg 74%
20:00 +14°C° 0 mm 3 mps 759 mmHg 75%
21:00 +14°C° 0 mm 3 mps 760 mmHg 76%
22:00 +14°C° 0 mm 3 mps 760 mmHg 77%
23:00 +14°C° 0 mm 3 mps 760 mmHg 77%

Tomorrow, 10 March, Wednesday

Time Temperature Precipitation Wind Pressure Humidity
00:00 +13°C° 0 mm 3 mps 760 mmHg 78%
01:00 +13°C° 0 mm 3 mps 759 mmHg 78%
02:00 +13°C° 0 mm 3 mps 759 mmHg 77%
03:00 +13°C° 0 mm 3 mps 759 mmHg 77%
04:00 +13°C° 0 mm 3 mps 759 mmHg 76%
05:00 +13°C° 0 mm 3 mps 759 mmHg 77%
06:00 +14°C° 0 mm 2 mps 759 mmHg 78%
07:00 +14°C° 0 mm 2 mps 759 mmHg 79%
08:00 +15°C° 0 mm 2 mps 759 mmHg 75%
09:00 +16°C° 0 mm 2 mps 759 mmHg 71%
10:00 +17°C° 0 mm 2 mps 759 mmHg 67%
11:00 +17°C° 0 mm 3 mps 759 mmHg 70%
12:00 +15°C° 0 mm 4 mps 759 mmHg 72%
13:00 +15°C° 0 mm 4 mps 759 mmHg 75%
14:00 +15°C° 0.1 mm 5 mps 758 mmHg 76%
15:00 +15°C° 0.1 mm 5 mps 758 mmHg 77%
16:00 +15°C° 0.1 mm 5 mps 758 mmHg 79%
17:00 +15°C° 0.3 mm 5 mps 758 mmHg 81%
18:00 +14°C° 0.3 mm 5 mps 758 mmHg 83%
19:00 +14°C° 0.3 mm 5 mps 759 mmHg 86%
20:00 +14°C° 0.4 mm 5 mps 759 mmHg 85%
21:00 +14°C° 0.4 mm 5 mps 759 mmHg 84%
22:00 +14°C° 0.4 mm 5 mps 759 mmHg 84%
23:00 +14°C° 0.4 mm 6 mps 759 mmHg 83%

Day after tomorrow, 11 March, Thursday

Time Temperature Precipitation Wind Pressure Humidity
00:00 +14°C° 0.4 mm 6 mps 759 mmHg 82%
01:00 +12°C° 0.4 mm 7 mps 759 mmHg 81%
02:00 +12°C° 0.3 mm 7 mps 759 mmHg 80%
03:00 +12°C° 0.3 mm 8 mps 759 mmHg 80%
04:00 +12°C° 0.3 mm 8 mps 758 mmHg 79%
05:00 +11°C° 0 mm 9 mps 759 mmHg 78%
06:00 +11°C° 0 mm 9 mps 759 mmHg 77%
07:00 +11°C° 0 mm 9 mps 760 mmHg 76%
08:00 +11°C° 0 mm 9 mps 760 mmHg 74%
09:00 +11°C° 0 mm 9 mps 761 mmHg 71%
10:00 +12°C° 0 mm 9 mps 761 mmHg 68%
11:00 +12°C° 0 mm 9 mps 761 mmHg 68%
12:00 +12°C° 0 mm 9 mps 762 mmHg 67%
13:00 +13°C° 0 mm 9 mps 762 mmHg 66%
14:00 +12°C° 0 mm 9 mps 762 mmHg 69%
15:00 +12°C° 0 mm 9 mps 762 mmHg 71%
16:00 +12°C° 0 mm 9 mps 762 mmHg 74%
17:00 +11°C° 0 mm 8 mps 763 mmHg 76%
18:00 +11°C° 0 mm 7 mps 764 mmHg 78%
19:00 +11°C° 0 mm 6 mps 765 mmHg 80%
20:00 +12°C° 0 mm 5 mps 765 mmHg 79%
21:00 +12°C° 0 mm 5 mps 766 mmHg 79%
22:00 +12°C° 0 mm 4 mps 766 mmHg 78%
23:00 +11°C° 0 mm 4 mps 767 mmHg 78%

12 March, Friday

Time Temperature Precipitation Wind Pressure Humidity
00:00 +11°C° 0 mm 3 mps 767 mmHg 77%
01:00 +11°C° 0 mm 3 mps 767 mmHg 76%
02:00 +12°C° 0 mm 2 mps 767 mmHg 77%
03:00 +10°C° 0 mm 2 mps 767 mmHg 77%
04:00 +11°C° 0 mm 1 mps 767 mmHg 77%
05:00 +12°C° 0 mm 1 mps 767 mmHg 76%
06:00 +12°C° 0 mm 1 mps 767 mmHg 75%
07:00 +13°C° 0 mm 1 mps 767 mmHg 74%
08:00 +13°C° 0 mm 1 mps 767 mmHg 71%
09:00 +14°C° 0 mm 2 mps 767 mmHg 68%
10:00 +15°C° 0 mm 2 mps 767 mmHg 65%
11:00 +15°C° 0 mm 2 mps 767 mmHg 63%
12:00 +15°C° 0 mm 2 mps 767 mmHg 61%
13:00 +14°C° 0 mm 3 mps 767 mmHg 59%
14:00 +14°C° 0 mm 3 mps 766 mmHg 57%
15:00 +14°C° 0 mm 3 mps 766 mmHg 55%
16:00 +14°C° 0 mm 4 mps 766 mmHg 52%
17:00 +13°C° 0 mm 3 mps 766 mmHg 52%
18:00 +13°C° 0 mm 3 mps 766 mmHg 53%
19:00 +13°C° 0 mm 2 mps 766 mmHg 53%
20:00 +13°C° 0 mm 2 mps 766 mmHg 54%
21:00 +13°C° 0 mm 2 mps 766 mmHg 55%
22:00 +13°C° 0 mm 2 mps 766 mmHg 56%
23:00 +13°C° 0 mm 1 mps 765 mmHg 59%

13 March, Saturday

Time Temperature Precipitation Wind Pressure Humidity
00:00 +12°C° 0 mm 1 mps 765 mmHg 61%
01:00 +12°C° 0 mm 1 mps 764 mmHg 63%
02:00 +12°C° 0 mm 1 mps 764 mmHg 64%
03:00 +12°C° 0 mm 1 mps 764 mmHg 66%
04:00 +12°C° 0 mm 1 mps 763 mmHg 67%
05:00 +13°C° 0 mm 1 mps 763 mmHg 67%
06:00 +13°C° 0 mm 1 mps 764 mmHg 66%
07:00 +13°C° 0 mm 1 mps 764 mmHg 66%
08:00 +14°C° 0 mm 1 mps 764 mmHg 63%
09:00 +15°C° 0 mm 1 mps 764 mmHg 61%
10:00 +16°C° 0 mm 2 mps 764 mmHg 58%
11:00 +16°C° 0 mm 2 mps 764 mmHg 59%
12:00 +16°C° 0 mm 2 mps 763 mmHg 60%
13:00 +16°C° 0 mm 2 mps 763 mmHg 61%
14:00 +16°C° 0 mm 2 mps 763 mmHg 63%
15:00 +15°C° 0 mm 2 mps 762 mmHg 66%
16:00 +15°C° 0 mm 2 mps 762 mmHg 68%
17:00 +15°C° 0 mm 1 mps 762 mmHg 69%
18:00 +15°C° 0 mm 1 mps 762 mmHg 71%
19:00 +14°C° 0 mm 1 mps 762 mmHg 72%
20:00 +14°C° 0 mm 1 mps 762 mmHg 74%
21:00 +14°C° 0 mm 2 mps 762 mmHg 75%
22:00 +13°C° 0 mm 3 mps 762 mmHg 77%
23:00 +14°C° 0 mm 2 mps 762 mmHg 77%

14 March, Sunday

Time Temperature Precipitation Wind Pressure Humidity
00:00 +14°C° 0 mm 2 mps 762 mmHg 78%
01:00 +14°C° 0 mm 2 mps 761 mmHg 78%
02:00 +14°C° 0.1 mm 2 mps 761 mmHg 81%
03:00 +14°C° 0.1 mm 2 mps 761 mmHg 83%
04:00 +14°C° 0.1 mm 2 mps 760 mmHg 85%
05:00 +14°C° 0.5 mm 2 mps 760 mmHg 84%
06:00 +14°C° 0.5 mm 2 mps 760 mmHg 84%
07:00 +13°C° 0.5 mm 3 mps 760 mmHg 83%
08:00 +14°C° 0.3 mm 2 mps 760 mmHg 82%
09:00 +14°C° 0.3 mm 2 mps 760 mmHg 81%
10:00 +14°C° 0.3 mm 2 mps 759 mmHg 80%
11:00 +14°C° 0.4 mm 2 mps 759 mmHg 81%
12:00 +13°C° 0.4 mm 3 mps 759 mmHg 82%
13:00 +12°C° 0.4 mm 4 mps 759 mmHg 83%
14:00 +13°C° 0.3 mm 4 mps 758 mmHg 80%
15:00 +13°C° 0.3 mm 4 mps 758 mmHg 78%
16:00 +13°C° 0.3 mm 4 mps 757 mmHg 75%
17:00 +13°C° 0.1 mm 4 mps 757 mmHg 77%
18:00 +13°C° 0.1 mm 4 mps 757 mmHg 78%
19:00 +12°C° 0.1 mm 4 mps 757 mmHg 79%
20:00 +12°C° 0 mm 4 mps 757 mmHg 79%
21:00 +13°C° 0 mm 4 mps 757 mmHg 78%
22:00 +13°C° 0 mm 4 mps 757 mmHg 78%
23:00 +13°C° 0.1 mm 5 mps 757 mmHg 80%
Show more